VANGUARD R/B, 16

Orbit data source: Space-Track

VANGUARD R/B, 16 is space debris in LEO originally from a launch on Mon, 17 Mar 1958 UTC launched from the Air Force Eastern Test Range (AFETR). Debris objects in space refer to the collection of defunct objects orbiting the Earth. Examples of debris include non-operational satellites, rocket bodies, and fragments generated from explosions, collisions, or faulty payload assembly.

Loading next visibility...
VANGUARD R/B details
Identifier
16, 1958-002A
Orbit
LEO
Last TLE update17 hours ago
Origin
Flag of USNRL (US)
ManufacturerGCR/Redlands
MissionSpacecraft
Bus & Motor33-KS-2800, Unknown motor
Mass22 kg wet, 22 kg dry
Launch date (UTC)
1958-03-17 (67 years ago)
Launch vehicleUnknown
Launch site
Air Force Eastern Test Range (AFETR)
Object type
Payload
Rocket body
Debris
Shape & HBRCyl, 1.5 m
Radar Cross Section1.017 m², Medium (>0.1 m² and < 1m²)

Expand to show TLE details & history

TLE from 17 hours ago
0 VANGUARD R/B
1 00016U 58002A   25047.31875993  .00000261  00000-0  33157-3 0  9996
2 00016  34.2722 270.1902 2023076 228.7541 112.0457 10.49541624637865
Epoch: 2025-02-16T07:39Z
Definitive object data (Epoch: 2025-02-16T07:39:00.857Z)
Latitude0.00002°
Longitude8.88312°
Altitude3,374.216 km
Speed6.044 km/s
True Right ascension18h 00m 45s
True Declination0° 00' 00"
Sunlit
Object was in daylight at TLE epoch
Visualization TLE readout
Latitude32.92147°
Longitude115.70078°
Altitude3,213.462 km
Speed6.159 km/s
Apparent Right ascension22h 50m 58s
Apparent Declination13° 08' 11"
Sunlit
Object is in daylight
Visualization observer readout
Local Sidereal Time03:22:14
Azimuth266.093° W
Elevation25.329°
Doppler factor1
Orbital elements
Apogee altitude4,219.819 km
Perigee altitude653.266 km
Semi-major axis8,814.679 km
Eccentricity0.2023076
Inclination34.2722°
RAAN270.1902°
Arg. of periapsis228.7541°
True anomaly131.30194°
Mean anomaly112.0457°
Eccentric anomaly121.88776°
Mean motion2.62261 °/min
BSTAR0.00033157
Orbital period137.27 mins
Loading maneuver chart data...
Loading historical data...
Loading historical data...
Loading historical data...
Loading historical data...
Loading historical data...
Loading historical data...
Loading historical data...
Other satellites on launch #2 in the year 1958 (1958-03-17 UTC)

VANGUARD R/B Visibility forecast

Observer location: undefined°, undefined

Span
Click to sort rows by Start time (UTC) header in descending order
Start Az.
Max El. time (UTC)
Max El. Az.
Max El.
End time (UTC)
End Az.
19 mins2025-02-17 00:33:43.530Z265.958° W2025-02-17 00:42:43.530Z222.549° SW32.813°2025-02-17 00:52:43.530Z155.954° SSE
38 mins2025-02-17 15:39:43.530Z191.419° SSW2025-02-17 15:56:43.530Z137.405° SSE30.45°2025-02-17 16:17:43.530Z82.159° E
44 mins2025-02-17 18:04:43.530Z231.805° WSW2025-02-17 18:27:43.530Z155.8° SSE42.056°2025-02-17 18:48:43.530Z84.892° E
42 mins2025-02-17 20:34:43.530Z261.289° W2025-02-17 20:59:43.530Z186.056° SSW43.995°2025-02-17 21:16:43.530Z102.324° ESE
33 mins2025-02-17 23:08:43.530Z277.424° WNW2025-02-17 23:29:43.530Z209.868° SW39.549°2025-02-17 23:41:43.530Z136.008° SSE
|